Home   Weather   Darmstadt   Past weeks
Flag for Germany

Past Weather in Darmstadt, Hesse, Germany — Yesterday and Last 2 Weeks

Now
55 °F

Sunny.


Feels Like: 53 °F
Forecast: 72 / 50 °F
Wind: 9 mph from Northeast

Location: Frankfurt-M-Flughafen Airport

Current Time: Apr 19, 2019 at 8:35:27 am

Latest Report: Apr 19, 2019 at 7:50 am


Visibility: 10 mi

Pressure: 30.33 "Hg

Humidity: 51%

Dew Point: 37 °F

Location of DarmstadtLocation

Past Weather in Darmstadt — Graph

°F

Darmstadt Temperature Yesterday

Maximum temperature yesterday: 72 °F (at 3:50 pm)
Minimum temperature yesterday: 50 °F (at 7:20 am)
Average temperature yesterday: 61 °F

High & Low Weather Summary for the Past Weeks

 TemperatureHumidityPressure
High72 °F (Apr 18, 3:50 pm)100% (Apr 4, 9:20 am)30.33 "Hg (Apr 4, 9:20 am)
Low34 °F (Apr 12, 6:20 am)27% (Apr 18, 6:20 pm)29.47 "Hg (Apr 4, 7:20 am)
Average50 °F63%29.97 "Hg
* Reported Apr 4 7:20 am — Apr 19 7:20 am, Darmstadt. Weather by CustomWeather, © 2019

Note: Actual official high and low records may vary slightly from our data, if they occured in-between our weather recording intervals... More about our weather records

Advertising

Darmstadt Weather History for the Previous 24 Hours

Scroll right to see more
 ConditionsComfort  
Time TempWeatherWind HumidityBarometerVisibility
7:20 am
Fri, Apr 19
55 °FSunny.9 mph51%30.33 "Hg10 mi
6:50 am54 °FSunny.13 mph51%30.30 "Hg10 mi
6:20 am55 °FClear.16 mph47%30.30 "Hg10 mi
5:50 am55 °FClear.15 mph47%30.30 "Hg10 mi
5:20 am55 °FClear.13 mph47%30.30 "Hg10 mi
4:50 am54 °FClear.13 mph51%30.30 "Hg10 mi
4:20 am52 °FClear.10 mph54%30.30 "Hg10 mi
3:50 am54 °FClear.10 mph51%30.30 "Hg10 mi
3:20 am54 °FClear.3 mph54%30.30 "Hg10 mi
2:50 am54 °FClear.2 mph54%30.30 "Hg10 mi
2:20 am55 °FClear.1 mph47%30.30 "Hg10 mi
1:50 am57 °FClear.3 mph44%30.27 "Hg10 mi
1:20 am55 °FClear.9 mph47%30.27 "Hg10 mi
12:50 am55 °FClear.10 mph51%30.30 "Hg10 mi
12:20 am57 °FClear.9 mph44%30.27 "Hg10 mi
11:50 pm
Thu, Apr 18
57 °FClear.9 mph44%30.27 "Hg10 mi
11:20 pm57 °FClear.9 mph44%30.27 "Hg10 mi
10:50 pm64 °FClear.14 mph32%30.27 "Hg10 mi
10:20 pm61 °FClear.13 mph39%30.24 "Hg10 mi
9:50 pm63 °FClear.14 mph37%30.24 "Hg10 mi
9:20 pm63 °FClear.14 mph37%30.24 "Hg10 mi
8:50 pm63 °FClear.14 mph37%30.24 "Hg10 mi
8:20 pm66 °FSunny.14 mph32%30.21 "Hg10 mi
7:50 pm70 °FSunny.15 mph29%30.21 "Hg10 mi
7:20 pm70 °FSunny.16 mph31%30.21 "Hg10 mi
6:50 pm72 °FSunny.15 mph29%30.21 "Hg10 mi
6:20 pm72 °FSunny.17 mph27%30.21 "Hg10 mi
5:50 pm72 °FSunny.14 mph29%30.18 "Hg10 mi
5:20 pm72 °FPassing clouds.17 mph29%30.18 "HgN/A
4:50 pm72 °FPassing clouds.14 mph31%30.18 "HgN/A
4:20 pm72 °FPassing clouds.14 mph31%30.18 "HgN/A
3:50 pm72 °FPassing clouds.13 mph31%30.21 "HgN/A
3:20 pm70 °FPassing clouds.15 mph33%30.21 "HgN/A
2:20 pm68 °FPassing clouds.13 mph35%30.21 "HgN/A
1:50 pm68 °FSunny.18 mph35%30.21 "Hg10 mi
1:20 pm66 °FSunny.15 mph37%30.24 "Hg10 mi
12:50 pm66 °FSunny.17 mph37%30.24 "Hg10 mi
12:20 pm64 °FSunny.17 mph40%30.24 "Hg10 mi
11:50 am64 °FPassing clouds.16 mph40%30.27 "HgN/A
11:20 am63 °FPassing clouds.14 mph45%30.27 "HgN/A
10:50 am63 °FPassing clouds.13 mph45%30.27 "HgN/A
10:20 am59 °FSunny.15 mph51%30.27 "Hg10 mi
9:50 am59 °FPassing clouds.13 mph51%30.27 "HgN/A
9:20 am57 °FSunny.12 mph51%30.27 "Hg10 mi
8:50 am55 °FSunny.13 mph55%30.27 "Hg10 mi
8:20 am54 °FSunny.10 mph58%30.27 "Hg10 mi
Weather by CustomWeather, © 2019

See weather overview